Location: Kalamazoo
(42.2920°N, 85.5870°W)
Time: 14:49:19
(UTC-04:00)

Daily predictions for brighter satellites

Satellite Brightness Start Highest point End
(mag) Time Altitude Azimuth Time Altitude Azimuth Time Altitude Azimuth
OAO 2 Rocket 4.3 21:48:04 10° SW 21:52:43 31° SSE 21:57:24 10° ESE
Cosmos 2322 4.2 21:52:14 10° NNW 21:57:54 63° WSW 22:03:30 10° S
deb Chang Zheng 4 3.6 21:54:27 10° NNE 21:58:46 64° ESE 22:03:05 10° S
ATLAS 2AS CENTAUR R/B 3.9 21:53:32 10° SSE 21:59:11 24° ESE 22:05:10 10° ENE
CZ-4 SHROUD 4.3 21:56:28 10° SE 21:59:13 29° ENE 22:01:59 10° N
Sich 1 4.1 21:56:03 10° SSE 21:59:48 28° E 22:03:33 10° NNE
Cosmos 2360 Rocket 2.8 21:54:25 10° NNW 21:59:58 59° WSW 22:05:31 10° S
Cosmos 1151 Rocket 3.3 21:56:40 10° NNW 22:00:59 72° W 22:05:18 10° S
Cosmos 1271 Rocket 4.2 21:59:11 10° NNE 22:02:15 22° ENE 22:05:19 10° SE
Cosmos 1328 3.7 21:59:47 10° S 22:03:42 72° E 22:07:40 10° NNE
ATLAS 3B R/B 4.2 22:00:09 10° NNW 22:06:05 27° NE 22:11:42 10° E
ERS-1 Rocket 3.3 22:02:15 10° S 22:07:15 69° WSW 22:12:18 10° NNW
Cosmos 1633 Rocket 3.9 22:03:43 10° SSE 22:07:35 31° E 22:11:27 10° NNE
ERBS 3.2 22:05:04 10° S 22:08:06 28° SE 22:11:10 10° ENE
YAOGAN 6 3.8 22:05:08 10° SE 22:08:16 28° ENE 22:11:22 10° NNE
Envisat 3.0 22:09:34 10° SSE 22:14:38 85° ENE 22:19:45 10° NNW
Cosmos 1674 4.0 22:11:55 10° SSW 22:15:36 43° WNW 22:19:19 10° N
Cosmos 1703 4.4 22:14:44 10° SE 22:17:54 26° E 22:21:09 10° NNE
SL-14 R/B 3.6 22:15:32 10° S 22:19:22 50° E 22:23:16 10° NNE
NOSS 3-1 (C) 3.5 22:15:33 10° SW 22:21:25 89° WNW 22:27:59 10° NE
USA 245 3.7 22:21:00 14° ESE 22:22:11 19° ENE 22:23:56 10° NNE
Meteor 1-27 4.2 22:17:17 10° N 22:22:58 74° E 22:28:33 10° SSE
Cosmos 1805 Rocket 3.6 22:20:47 10° S 22:25:14 85° E 22:29:42 10° N
PSLV R/B 3.1 22:23:16 12° SSE 22:26:06 74° ENE 22:29:08 10° N
Cosmos 220 Rocket 4.3 22:24:42 10° S 22:28:54 47° ESE 22:33:11 10° NNE
Cosmos 2227 Rocket 2.8 22:25:04 10° S 22:30:09 36° ESE 22:35:17 10° NE
Cosmos 1300 2.7 22:28:05 10° N 22:31:57 84° W 22:35:46 10° S
Cosmos 1937 Rocket 3.6 22:27:26 10° S 22:32:32 55° ESE 22:37:36 10° NNE
MetOp-A 4.1 22:30:23 10° SSE 22:35:42 84° ENE 22:41:05 10° NNW
Cosmos 990 Rocket 4.3 22:33:36 10° S 22:38:26 44° ESE 22:43:19 10° NNE
H-2A R/B 3.4 22:37:54 10° SSW 22:42:08 39° W 22:46:23 10° NNW
Cosmos 292 Rocket 3.7 22:37:28 10° NNW 22:42:15 84° ENE 22:46:00 16° SSE
Meteor 2-11 Rocket 4.5 22:36:36 10° N 22:42:46 86° W 22:48:52 10° S
Cosmos 1707 Rocket 3.9 22:39:32 10° NNW 22:43:53 66° W 22:48:13 10° S
SPOT 5 3.2 22:40:13 10° S 22:44:48 64° WSW 22:49:42 10° NNW
SL-16 R/B 3.6 22:41:46 10° N 22:46:35 27° NE 22:50:40 13° ESE
Cosmos 1666 Rocket 3.8 22:43:56 10° SSW 22:48:19 74° W 22:52:47 10° N
CZ-4B R/B 3.5 22:43:34 10° NNE 22:48:50 70° ESE 22:53:57 10° S
ARGOS 3.3 22:44:45 16° SSE 22:49:01 65° ENE 22:54:21 10° N
Cosmos 2298 Rocket 4.5 22:43:47 10° SSW 22:49:04 66° WNW 22:54:23 10° NNE
Cosmos 2333 Rocket 2.3 22:45:49 10° NNW 22:51:35 70° ENE 22:55:43 19° SE
Cosmos 1455 2.9 22:50:28 10° N 22:54:02 37° ENE 22:55:49 23° SE
OTV 4 1.3 22:51:59 10° SW 22:54:37 29° S 22:54:46 28° SSE
Cosmos 1726 2.8 22:52:18 10° NNW 22:56:01 53° W 22:59:13 13° S
Hubble Space Telescope 3.0 22:54:50 10° SSW 22:54:58 10° S 22:54:58 10° S
Cosmos 1241 Rocket 4.4 22:50:16 10° SSW 22:56:22 67° ESE 23:02:35 10° NE
Cosmos 2297 Rocket 2.6 22:51:53 13° S 22:56:34 41° ESE 23:01:51 10° NE
Cosmos 1346 3.4 22:57:45 31° SSE 22:58:47 45° E 23:01:42 10° NNE
Cosmos 2219 Rocket 2.2 22:53:26 10° NNW 22:59:02 80° WSW 23:03:06 19° SSE
DELTA 2 R/B(2) 3.7 22:57:42 10° WSW 22:59:25 44° S 22:59:30 44° S
Landsat 7 4.2 22:57:59 22° SE 23:00:51 49° ENE 23:05:27 10° N
Cosmos 1470 Rocket 3.5 22:59:12 19° S 23:02:09 61° E 23:06:25 10° NNE
Cosmos 1933 Rocket 3.6 23:00:00 19° S 23:03:03 61° E 23:07:28 10° NNE
Meteor 2-10 4.2 22:57:29 10° N 23:03:15 86° E 23:07:31 19° S
COSMOS 2428 3.9 22:58:07 10° NW 23:03:16 37° WSW 23:08:25 10° S
Meteor 1-4 Rocket 3.1 23:00:49 10° NNW 23:04:30 57° W 23:06:57 19° S
NOSS 0 Rocket 4.0 22:59:05 10° NNW 23:05:15 82° WSW 23:09:35 21° SSE
Lacrosse 4 Rocket 2.7 23:02:28 10° N 23:06:30 33° NE 23:08:55 19° ESE
SL-08 RB Rocket 3.6 23:05:02 23° SSE 23:07:49 81° ENE 23:12:20 10° N
Nadezhda 1 Rocket 4.0 23:01:56 10° N 23:08:02 72° E 23:12:17 21° SSE
Terra 2.2 23:14:21 26° SE 23:16:42 50° ENE 23:21:18 10° N
COSMOS 2455 3.2 23:12:19 10° NNW 23:18:15 56° NE 23:21:50 24° SE
H-2A R/B 2.3 23:15:25 25° SE 23:18:30 62° ENE 23:23:52 10° N
Cosmos 1745 Rocket 4.1 23:16:53 11° S 23:22:59 78° W 23:29:11 10° N
Cosmos 1980 3.8 23:17:53 10° NNW 23:23:31 70° WSW 23:26:49 25° S
Tiangong 1 1.0 23:21:07 10° W 23:24:14 79° N 23:25:23 35° E
Cosmos 1125 Rocket 3.7 23:23:43 26° SSE 23:26:25 51° ESE 23:31:34 10° NNE
Cosmos 2221 Rocket 4.4 23:25:54 10° N 23:30:09 37° ENE 23:31:33 30° ESE
Cosmos 1709 Rocket 4.1 23:27:43 27° SSE 23:30:56 54° E 23:36:52 10° NNE
SPOT 1/Viking Rocket 4.4 23:27:32 16° SSW 23:31:17 44° W 23:36:13 10° NNW
Spot 4 4.2 23:29:24 31° SE 23:31:29 55° ENE 23:36:14 10° N
Cosmos 2237 Rocket 2.5 23:29:34 10° NNW 23:35:12 62° WSW 23:38:17 27° S
Cosmos 1900 4.3 23:31:37 10° NNW 23:36:38 81° ENE 23:38:38 36° SE
OAO 2 Rocket 4.0 23:32:07 10° WSW 23:37:01 38° S 23:38:02 34° SSE
Cosmos 1869 3.4 23:33:43 10° N 23:37:46 77° W 23:39:13 38° S
Cosmos 389 Rocket 4.0 23:35:01 10° NNE 23:37:56 23° ENE 23:38:11 23° E
Cosmos 1626 2.5 23:36:48 27° SSW 23:38:39 61° W 23:42:24 10° N
Cosmos 1386 Rocket 4.5 23:36:10 18° SSW 23:40:47 77° W 23:46:50 10° N
Cosmos 2082 4.2 23:36:28 10° SW 23:42:08 63° WNW 23:47:50 10° NNE
Cosmos 1862 Rocket 4.0 23:38:54 10° NNW 23:43:09 56° W 23:45:04 30° SSW
CARTOSAT-1 3.5 23:42:07 39° S 23:43:40 83° WSW 23:48:01 10° NNW
ERBS 4.4 23:41:45 10° W 23:44:54 30° NW 23:48:02 10° NNE
ATLAS 2AS CENTAUR R/B 3.1 23:41:48 10° SW 23:49:20 79° NW 23:57:29 10° NE
IGS 5A 3.5 23:50:56 45° S 23:52:08 77° WSW 23:56:20 10° NNW
CZ-4C R/B 4.2 23:52:05 30° SW 23:53:00 35° W 23:56:14 10° NNW
